Theta_e
346 351 356 358 361 358 356 353 349 350 348 342 339 339 343 342 345 345 341 343 343 344 344 343 343 342 338 338 338 337 337 336 336 334 333 333 334 334 334 334 336 338 339 339 341 340 341 340 340
352 356 358 359 362 356 356 351 351 346 344 342 338 339 343 342 341 340 340 342 340 339 343 344 344 342 340 340 342 342 340 335 337 339 337 335 335 337 337 337 338 338 337 339 340 340 340 339 339
358 358 360 365 352 355 356 348 344 340 341 342 344 342 340 342 338 338 338 347 347 347 346 343 343 343 343 342 342 342 338 335 337 339 340 338 338 337 342 337 338 337 339 338 342 341 341 342 340
361 360 360 356 353 350 351 348 344 344 345 344 341 342 340 337 337 341 342 346 346 346 341 339 341 342 341 341 340 336 336 337 336 339 339 338 338 338 339 338 338 340 340 337 339 339 340 343 340
360 362 364 351 348 348 347 347 346 347 345 345 340 343 339 336 339 342 345 347 346 348 339 333 338 338 337 335 334 336 343 337 334 333 338 338 339 341 341 341 339 344 342 341 340 339 336 336 337
362 365 349 350 350 347 346 346 347 347 346 346 340 342 342 343 342 345 344 344 347 347 341 331 333 340 336 340 340 335 337 339 337 337 337 341 340 339 339 339 341 340 339 335 336 335 335 336 340
363 368 348 348 350 348 347 346 348 346 345 346 342 341 343 343 343 344 344 346 347 345 337 333 337 336 339 336 335 337 340 341 337 340 339 335 335 335 336 335 337 339 337 336 339 337 336 338 339
363 351 347 346 350 351 346 347 345 344 347 345 341 344 344 343 343 345 345 346 347 348 347 346 345 339 342 336 336 335 337 338 338 340 338 337 339 340 341 336 338 338 337 337 338 334 335 337 337
353 352 345 348 350 350 347 346 347 346 344 346 346 344 343 342 342 345 346 347 348 347 346 348 347 338 346 342 334 333 333 334 336 338 339 338 345 347 345 343 338 337 339 332 332 332 330 331 331
346 345 346 348 348 348 346 345 346 345 345 345 345 344 342 341 343 346 347 348 349 348 346 347 346 346 348 351 341 336 333 345 346 347 344 349 349 348 347 344 343 335 337 334 330 331 331 333 345
345 347 345 347 347 348 349 347 345 345 347 344 344 343 342 343 344 345 346 345 345 346 343 347 347 348 349 349 348 344 345 348 348 344 347 348 349 347 345 347 346 339 335 336 332 330 329 332 333
346 347 347 347 348 349 349 347 348 349 347 344 343 343 343 343 343 343 344 345 345 346 346 347 348 347 347 347 346 348 347 347 348 347 345 347 348 348 347 348 346 346 342 344 344 345 344 342 333
348 347 347 349 348 348 349 349 347 347 347 345 343 343 343 342 342 343 342 342 343 345 346 347 349 349 348 349 346 349 349 348 347 347 348 346 348 349 348 347 348 347 346 345 346 346 346 345 345
344 348 348 349 349 349 351 349 350 346 346 345 344 344 344 343 342 341 341 341 343 345 346 347 348 346 341 346 350 347 348 347 348 349 348 350 348 346 343 346 346 349 346 345 346 344 346 345 343
346 353 344 345 350 347 339 345 351 345 347 345 344 344 344 344 343 343 342 341 342 345 346 345 347 348 344 348 351 350 350 349 350 349 348 346 342 343 344 343 344 347 346 345 345 345 343 342 340
345 348 349 347 349 345 340 346 343 345 346 345 345 345 345 345 345 344 343 343 344 346 346 347 346 349 346 350 349 349 349 350 351 349 351 349 343 345 345 344 345 344 342 342 342 344 343 345 347
350 351 350 351 347 351 354 353 347 345 346 346 345 345 344 345 345 344 344 345 349 348 347 348 346 347 348 351 348 349 351 350 349 349 350 351 350 348 346 345 344 344 342 344 350 347 348 347 345
351 351 348 348 343 342 346 357 354 347 347 347 346 345 345 344 345 345 345 346 349 349 349 349 349 348 348 351 349 351 353 352 348 350 349 349 346 345 347 348 342 342 347 348 348 348 350 348 348
344 349 350 349 341 342 343 345 356 351 348 347 346 345 345 344 345 346 347 347 348 347 350 351 350 349 349 351 351 347 348 349 348 350 350 349 343 351 348 350 347 345 347 348 348 347 346 346 347
346 347 348 343 342 341 341 342 351 355 352 348 347 346 345 345 345 345 347 348 347 349 349 349 353 351 352 353 352 353 352 351 351 352 352 349 347 346 345 348 352 347 350 347 344 343 344 345 346
341 340 341 342 342 341 341 344 343 344 351 350 348 347 346 346 345 346 347 347 348 349 349 350 349 354 352 352 354 349 349 351 350 351 345 341 340 343 350 350 348 349 345 347 346 344 347 347 344
339 339 339 341 341 342 340 342 347 345 344 351 350 349 348 347 347 347 348 348 348 349 350 351 352 352 352 352 356 349 351 350 351 349 340 339 339 340 343 347 345 345 346 348 347 350 346 345 342
337 337 337 339 339 339 339 339 349 350 350 354 351 350 349 349 348 348 349 349 349 351 350 352 352 352 351 348 355 350 353 353 352 349 341 339 339 341 342 348 349 346 347 349 345 346 348 346 347
334 334 336 336 337 340 338 338 342 348 352 345 344 347 350 350 350 350 350 350 350 351 352 352 353 353 352 348 351 352 347 353 353 350 350 348 346 341 346 351 350 353 349 348 346 347 343 340 341
330 331 332 335 337 338 337 338 338 343 343 342 345 347 349 350 351 350 351 351 351 351 353 355 355 354 355 353 348 351 352 350 352 350 351 349 349 350 347 349 348 346 344 344 343 340 337 332 328
328 330 330 335 333 334 335 337 340 343 341 341 345 348 347 347 351 351 351 351 352 352 353 354 356 357 357 357 354 350 349 351 354 354 352 348 348 349 347 348 346 344 344 342 339 338 336 332 323
328 327 329 328 329 330 331 333 339 341 341 337 337 340 339 344 348 352 351 352 352 351 352 353 355 356 357 358 357 352 353 353 354 355 351 351 350 349 349 348 345 342 343 341 331 334 331 327 330
328 328 326 328 330 331 329 333 334 345 342 340 337 337 340 340 343 352 352 352 353 351 353 353 354 354 352 354 355 354 351 352 354 353 351 351 352 350 349 349 343 343 342 336 331 334 326 328 325
328 327 327 327 327 330 330 331 333 342 340 340 338 338 339 341 342 348 352 352 353 352 354 354 354 354 354 351 353 352 353 353 352 354 354 351 351 350 350 345 343 343 339 325 326 335 330 313 315
331 328 328 329 328 328 329 331 332 334 336 336 338 335 338 339 342 345 352 352 354 353 354 356 357 357 356 351 353 354 356 358 355 356 355 352 351 352 348 344 344 341 331 319 315 326 323 313 316
Wind_Speed
10 10 5 4 4 2 10 5 9 14 10 17 15 2 11 12 4 6 28 20 18 15 16 16 16 15 16 17 17 17 15 15 12 11 12 12 10 9 8 8 8 6 4 3 3 4 4 6 8
13 9 7 7 2 9 8 14 13 15 17 17 15 13 7 6 15 25 29 23 20 14 14 15 17 15 16 16 15 13 11 12 10 9 9 9 9 7 7 8 7 5 3 3 3 3 5 7 8
10 8 6 3 9 8 8 17 17 20 20 16 8 2 12 13 27 37 28 21 19 12 10 15 16 16 16 14 12 11 9 7 7 7 8 10 9 8 7 7 5 3 4 6 6 5 6 8 9
7 10 10 4 17 16 23 16 22 16 8 12 23 15 20 26 34 17 23 19 20 18 12 15 16 15 13 12 10 9 7 6 6 7 9 10 9 7 7 5 5 5 6 6 6 7 7 8 9
13 9 3 12 13 16 15 28 21 15 8 11 27 20 20 17 16 23 21 18 18 18 13 17 16 15 13 10 8 8 6 4 6 6 6 7 6 5 5 6 6 6 6 6 6 7 5 6 7
6 8 8 11 14 10 11 14 22 12 26 14 27 23 11 17 25 23 20 19 18 16 15 16 16 15 13 10 8 7 8 6 6 6 7 6 6 6 5 5 5 6 6 5 5 5 6 6 6
8 4 15 13 12 8 6 13 4 22 12 17 25 18 18 23 25 24 24 20 19 14 15 15 15 14 12 10 8 8 8 8 7 8 7 7 6 5 4 5 5 5 6 5 5 5 6 6 5
14 2 16 14 10 12 4 11 11 11 16 24 26 15 24 27 24 22 18 18 14 20 10 9 10 12 11 9 8 6 6 6 5 5 5 6 6 5 3 4 5 6 6 6 5 4 5 6 6
17 4 10 14 13 9 6 9 11 12 14 16 17 24 28 29 25 22 18 16 12 22 15 16 10 8 9 5 5 5 4 4 4 4 5 6 6 3 4 3 3 6 8 8 5 3 4 5 6
2 10 12 18 15 10 12 10 10 10 12 12 8 26 29 30 28 24 23 19 15 15 22 18 16 11 8 12 6 1 6 4 3 3 3 1 4 4 2 2 4 8 8 8 9 6 4 4 3
14 11 10 15 14 13 15 11 11 14 13 14 27 33 32 30 27 24 22 19 20 15 20 18 16 17 14 15 6 4 2 2 3 4 3 3 4 3 3 6 6 8 8 7 6 7 9 7 5
8 12 13 11 11 6 10 9 13 6 10 18 25 30 32 30 28 25 23 22 22 19 17 20 22 16 11 9 9 10 3 5 12 6 4 5 3 7 8 5 3 4 3 4 3 3 4 7 12
8 3 13 11 10 9 8 4 8 7 6 19 26 27 30 27 25 23 20 20 21 17 18 19 19 19 17 10 9 4 4 4 3 6 4 3 7 9 11 6 6 8 10 11 8 10 10 10 9
13 3 8 11 9 11 10 7 4 10 11 20 26 26 27 25 23 22 21 21 20 18 19 18 15 15 19 15 12 12 7 11 10 10 9 8 9 11 12 11 11 10 10 12 12 14 14 13 14
37 24 37 21 11 8 35 21 14 12 13 19 23 25 25 23 22 22 21 20 20 21 22 20 16 16 13 14 15 12 12 6 9 10 13 2 7 9 11 12 14 12 14 12 12 13 15 13 10
20 13 8 21 13 17 21 14 23 13 17 19 22 24 24 22 22 21 20 20 20 19 23 18 17 18 13 13 12 13 11 9 8 8 3 6 4 1 4 9 10 11 12 11 10 9 10 10 8
16 12 16 14 17 18 13 15 29 17 17 19 22 23 23 22 21 21 20 19 21 21 21 21 17 21 16 17 13 12 17 13 11 11 6 2 2 3 3 4 8 9 10 8 7 8 8 7 6
10 6 20 24 9 3 9 16 18 21 20 19 22 23 22 22 22 22 21 19 21 24 19 22 19 21 19 18 14 15 10 6 9 6 9 7 7 3 5 3 2 3 2 1 4 5 5 3 4
28 28 32 31 6 5 7 2 21 23 21 21 23 23 23 22 22 23 21 21 19 22 22 18 20 22 19 19 11 10 8 8 8 9 11 8 8 6 11 7 1 3 3 4 8 6 5 5 7
19 24 29 4 8 7 8 8 15 20 19 23 23 24 24 23 24 23 23 24 22 22 24 24 21 20 18 12 7 11 11 14 12 13 11 8 6 7 7 7 6 3 8 7 3 3 4 2 6
16 13 13 12 8 10 10 3 13 4 11 21 23 23 24 26 27 26 26 26 25 25 26 25 26 22 23 17 18 13 12 14 16 15 10 9 8 8 9 3 6 7 6 5 5 4 3 4 3
16 16 15 5 11 11 11 14 8 17 18 15 21 25 24 26 27 30 28 27 27 28 25 25 26 27 25 23 20 17 14 16 15 14 13 13 8 8 7 6 5 4 4 4 2 3 4 4 3
18 17 19 20 9 16 19 14 16 18 20 27 15 23 26 28 27 33 31 29 28 28 29 27 28 28 25 26 20 18 16 13 15 14 16 15 14 11 8 5 6 4 4 5 6 7 7 3 3
16 20 20 17 14 13 17 18 6 9 15 10 7 34 27 32 31 30 33 31 29 32 29 30 31 29 28 25 26 19 18 15 12 12 10 7 9 12 8 7 6 5 5 4 5 6 8 5 8
16 15 12 14 13 14 19 16 16 15 11 16 29 45 32 30 34 30 35 33 33 33 33 30 33 31 29 29 27 25 20 17 17 14 10 12 8 9 10 9 8 6 7 9 9 7 8 9 9
18 16 12 15 14 16 19 17 7 11 5 23 52 42 29 27 36 37 32 33 35 32 34 31 34 32 32 32 29 28 24 23 16 13 12 11 14 13 12 10 10 10 10 9 4 3 7 9 5
14 16 19 21 19 14 16 21 9 15 20 48 3 20 17 23 29 37 33 33 36 35 37 34 34 33 31 32 30 29 28 24 20 17 16 14 15 16 15 14 13 10 9 7 3 8 9 4 2
16 16 15 12 17 17 16 18 14 12 14 11 8 9 19 10 13 36 36 34 35 37 37 37 36 35 30 29 29 28 31 29 21 20 18 16 15 18 19 17 14 10 9 6 8 8 8 8 6
13 14 14 16 14 12 11 12 15 12 4 8 6 18 12 10 8 20 37 36 36 38 36 39 37 37 33 29 27 28 29 28 24 18 19 20 21 22 20 16 11 9 8 6 12 12 7 5 6
16 16 16 11 17 15 14 15 18 7 4 4 9 9 10 10 5 13 30 35 36 39 37 38 36 38 35 33 30 28 28 25 27 23 21 21 23 22 19 14 11 10 9 7 8 10 7 3 3
Wind_Direction
178 148 140 220 257 132 77 51 98 120 116 112 108 50 86 97 79 119 149 145 129 126 141 138 130 135 136 136 130 124 125 125 130 144 141 139 138 136 140 138 138 121 121 123 118 97 101 119 118
170 180 203 264 260 76 76 103 84 95 117 136 145 137 147 86 130 144 150 144 126 133 142 142 128 138 147 143 137 137 135 132 141 149 148 154 158 154 147 146 142 117 109 97 127 118 113 125 129
169 205 250 227 59 110 99 103 109 121 139 149 104 51 98 112 133 144 142 134 126 149 165 138 137 136 139 145 146 145 137 134 138 146 146 155 155 148 144 147 144 118 102 93 111 112 108 119 134
158 215 248 6 64 80 122 117 121 143 128 127 118 82 83 133 142 136 146 137 155 170 161 153 150 146 143 143 150 140 138 140 144 138 141 139 147 150 148 156 137 121 103 108 114 119 120 125 127
245 253 232 85 64 85 97 133 136 144 178 57 113 102 120 138 142 149 144 157 152 159 159 153 154 151 148 148 149 145 138 136 137 140 147 138 142 146 143 140 132 120 123 120 112 123 133 127 127
279 270 75 79 90 99 113 125 134 126 128 155 124 124 118 135 147 148 149 151 146 150 151 152 155 152 148 152 155 154 149 139 127 126 132 149 135 137 142 146 142 141 141 134 132 135 136 133 122
239 217 98 97 101 94 101 90 286 129 117 128 127 130 140 150 153 156 158 153 160 153 157 161 160 157 156 159 162 155 150 156 148 151 143 143 130 124 145 157 168 160 146 138 133 141 137 133 114
216 292 76 89 98 110 189 80 92 120 89 128 142 147 156 161 158 157 173 166 155 154 138 129 166 158 158 161 160 148 158 160 159 145 139 139 117 76 116 162 174 169 163 150 159 147 135 132 106
247 327 72 80 101 129 143 120 76 86 127 151 169 154 158 157 158 157 161 160 137 181 163 161 172 157 142 157 158 159 148 142 151 148 141 139 142 105 17 116 233 202 177 164 175 154 129 136 119
53 62 28 106 117 130 136 128 118 135 149 140 158 139 153 159 163 168 169 176 165 172 160 174 179 172 157 190 156 167 147 130 142 139 87 57 240 108 39 85 297 224 196 188 201 196 184 170 154
358 103 82 68 109 110 112 141 155 161 156 166 138 148 158 165 170 172 176 177 182 184 190 193 184 186 176 182 245 173 206 285 166 236 146 226 234 338 288 288 346 199 205 205 211 225 231 229 228
359 79 93 114 113 133 115 150 160 173 125 145 152 158 162 171 176 177 178 176 183 188 197 198 188 183 183 194 192 229 221 177 196 226 185 182 184 192 254 256 147 176 200 244 252 303 275 281 267
269 190 108 118 151 112 136 64 114 110 141 147 156 164 169 175 179 182 182 180 183 183 198 184 171 179 175 170 177 186 216 188 164 237 233 222 213 214 214 194 191 188 205 215 227 235 226 253 256
238 61 102 162 134 140 97 7 210 138 171 154 163 172 176 180 181 182 186 185 184 183 189 173 187 220 217 220 198 217 206 206 211 217 242 236 243 231 232 224 197 219 219 215 220 221 232 261 252
74 32 351 314 174 67 62 341 316 151 178 160 172 177 180 185 184 187 190 189 187 186 189 194 194 203 207 212 189 205 191 196 208 238 207 277 289 250 230 222 213 218 230 235 241 242 249 260 277
79 107 168 272 258 123 91 269 270 177 175 170 174 180 184 187 188 189 190 189 185 195 192 197 189 199 209 205 213 192 227 197 216 239 148 304 355 98 186 201 208 212 222 234 246 253 253 266 267
43 320 278 274 240 166 161 208 245 173 183 176 179 183 187 188 192 188 190 192 181 183 188 188 199 194 206 200 212 206 216 200 215 232 174 289 25 320 128 157 204 220 231 235 246 258 261 271 269
131 322 295 274 148 210 213 165 162 177 180 183 185 185 190 190 195 185 194 197 190 181 189 188 186 202 209 203 211 217 240 197 207 179 224 237 226 216 128 158 184 202 113 59 241 255 255 285 274
165 186 226 253 136 229 319 241 165 174 184 185 186 191 190 196 193 190 195 189 198 180 180 191 187 199 199 205 213 220 215 198 192 200 225 215 237 177 185 173 266 161 188 183 249 231 241 258 248
173 231 234 43 15 240 275 291 133 166 190 192 193 189 192 192 190 192 186 193 195 187 190 193 188 198 187 201 202 199 199 200 205 198 223 213 196 190 166 189 195 212 241 237 252 260 257 270 215
288 288 304 330 335 288 321 229 194 6 216 202 193 194 196 190 191 188 189 197 195 193 191 197 195 206 211 185 200 218 195 196 207 216 218 198 192 177 187 184 205 220 246 252 244 239 269 285 285
287 295 301 354 302 293 282 289 103 157 253 193 204 190 195 197 193 183 190 195 195 194 193 199 205 205 219 185 207 198 194 208 213 223 202 190 190 199 192 203 212 214 221 233 226 308 264 291 311
286 286 291 302 278 297 290 287 143 129 108 262 211 202 196 193 199 184 187 193 197 194 196 200 209 211 213 195 206 208 187 212 211 217 221 218 225 226 203 217 217 229 232 225 246 255 268 260 281
281 280 289 291 284 276 276 278 199 151 176 143 205 231 220 192 194 192 185 190 195 193 194 198 210 215 214 208 202 212 196 198 211 192 224 216 216 198 189 219 210 210 231 225 240 269 283 274 244
275 264 263 256 256 256 258 255 268 152 173 181 193 218 221 192 183 192 184 188 190 192 190 196 207 213 216 216 212 209 201 201 209 201 190 199 197 226 215 216 219 251 244 245 260 270 269 278 262
271 257 255 260 260 269 274 272 338 136 13 296 195 209 176 182 181 185 193 188 187 191 189 192 204 213 218 219 218 208 207 201 202 208 201 210 209 226 234 224 227 236 250 258 259 253 223 282 286
253 259 279 286 285 274 282 292 206 94 72 296 306 165 166 177 176 182 190 190 189 189 193 194 205 215 218 216 217 210 208 207 204 216 198 203 213 217 232 231 242 229 231 245 221 240 263 266 150
272 289 288 269 262 271 286 292 299 145 188 236 194 120 133 147 173 180 185 194 190 188 193 196 208 216 215 209 212 211 211 206 205 208 204 201 214 226 232 236 228 238 241 238 187 247 252 198 173
251 225 244 269 280 290 286 258 248 42 78 347 66 67 101 133 176 190 185 190 191 185 191 196 208 214 214 207 209 207 211 212 205 209 207 201 212 225 230 232 233 239 239 224 195 206 236 223 215
233 259 271 248 239 261 278 289 301 4 314 110 289 63 85 22 170 201 187 187 189 189 191 190 204 211 216 208 209 205 206 202 201 206 220 219 218 222 232 228 231 233 238 234 215 193 233 196 161